RYR9P LIEE-EGSS

Flight info

Callsign RYR9P
Flight time N/A
Altitude 38000
Route KOVAS DCT GIGGI DCT UPDUT DCT CORSI DCT OKROK DCT AKUTI DCT TORTU DCT ERTEV DCT LAGEN DCT AOSTA DCT ORSUD DCT MOLUS DCT GILIR DCT PENDU DCT IXILU DCT GIVOR DCT SORAL DCT IBERA DCT BUB DCT KOZUF DCT IMPOH DCT SASKI L608 SUMUM Y6 TOSVA
Aircraft B38M/M-SADE3FGILRWY/SB1

Departure

Time 2026-04-30 12:49
Airport Cagliari Elmas Airport (LIEE)

Arrival

Time N/A
Airport London Stansted Airport (EGSS)
Time Latitude Longitude Altitude Speed Heading
2026-04-30 12:10 39.25288 9.05824 22 ft 0 kts 52°
2026-04-30 12:41 39.25285 9.05819 22 ft 2 kts 52°
2026-04-30 12:41 39.25277 9.05804 21 ft 1 kts 52°
2026-04-30 12:42 39.25270 9.05794 21 ft 2 kts 40°
2026-04-30 12:42 39.25257 9.05785 21 ft 2 kts 12°
2026-04-30 12:42 39.25242 9.05785 21 ft 2 kts 346°
2026-04-30 12:42 39.25229 9.05792 21 ft 0 kts 322°
2026-04-30 12:43 39.25228 9.05793 21 ft 1 kts 319°
2026-04-30 12:43 39.25251 9.05767 21 ft 4 kts 318°
2026-04-30 12:43 39.25260 9.05757 21 ft 0 kts 318°
2026-04-30 12:45 39.25266 9.05750 21 ft 4 kts 318°
2026-04-30 12:45 39.25304 9.05706 21 ft 10 kts 318°
2026-04-30 12:46 39.25378 9.05609 21 ft 19 kts 302°
2026-04-30 12:46 39.25417 9.05431 22 ft 22 kts 291°
2026-04-30 12:46 39.25518 9.05272 22 ft 24 kts 317°
2026-04-30 12:46 39.25650 9.05116 22 ft 26 kts 317°
2026-04-30 12:47 39.25796 9.04950 22 ft 28 kts 317°
2026-04-30 12:47 39.25942 9.04781 22 ft 27 kts 319°
2026-04-30 12:47 39.26080 9.04623 22 ft 19 kts 317°
2026-04-30 12:47 39.26128 9.04505 22 ft 14 kts 271°
2026-04-30 12:48 39.26099 9.04399 22 ft 12 kts 215°
2026-04-30 12:48 39.26037 9.04397 22 ft 8 kts 135°
2026-04-30 12:48 39.25970 9.04477 22 ft 26 kts 138°
2026-04-30 12:48 39.25625 9.04876 22 ft 104 kts 137°
2026-04-30 12:49 39.24912 9.05706 54 ft 163 kts 136°
2026-04-30 12:49 39.24048 9.06727 636 ft 177 kts 139°
2026-04-30 12:49 39.23101 9.07812 1387 ft 187 kts 136°
2026-04-30 12:49 39.22152 9.08912 2145 ft 186 kts 136°
2026-04-30 12:50 39.21153 9.10063 2596 ft 202 kts 136°
2026-04-30 12:50 39.20013 9.11235 3048 ft 220 kts 148°
2026-04-30 12:50 39.18491 9.11833 3507 ft 239 kts 180°
2026-04-30 12:50 39.16835 9.11349 4087 ft 251 kts 207°
2026-04-30 12:51 39.15429 9.10111 4929 ft 250 kts 225°
2026-04-30 12:51 39.14383 9.08323 5655 ft 251 kts 253°
2026-04-30 12:51 39.14161 9.06176 6428 ft 246 kts 279°
2026-04-30 12:51 39.14601 9.04058 7110 ft 249 kts 296°
2026-04-30 12:52 39.15488 9.02099 7599 ft 260 kts 311°
2026-04-30 12:52 39.16802 9.00419 8142 ft 271 kts 320°
2026-04-30 12:52 39.18237 8.98866 8921 ft 273 kts 321°
2026-04-30 12:52 39.19691 8.97279 9382 ft 274 kts 320°
2026-04-30 12:53 39.21140 8.95643 9533 ft 278 kts 319°
2026-04-30 12:53 39.22648 8.94057 10232 ft 281 kts 326°
2026-04-30 12:53 39.24384 8.92944 10889 ft 289 kts 345°
2026-04-30 12:53 39.26409 8.92639 11627 ft 294 kts 355°
2026-04-30 12:54 39.28451 8.92594 12397 ft 297 kts 356°
2026-04-30 12:54 39.30513 8.92541 13127 ft 300 kts 355°
2026-04-30 12:54 39.32613 8.92426 13851 ft 304 kts 354°
2026-04-30 12:54 39.34728 8.92287 14559 ft 308 kts 354°
2026-04-30 12:55 39.36900 8.92149 15261 ft 313 kts 354°
2026-04-30 12:55 39.39075 8.92022 15950 ft 317 kts 354°
2026-04-30 12:55 39.41285 8.91901 16620 ft 322 kts 354°
2026-04-30 12:55 39.43532 8.91781 17293 ft 326 kts 354°
2026-04-30 12:56 39.45798 8.91659 17940 ft 330 kts 354°
2026-04-30 12:56 39.48106 8.91536 18606 ft 333 kts 354°
2026-04-30 12:56 39.50412 8.91415 19299 ft 335 kts 354°
2026-04-30 12:56 39.52740 8.91291 19967 ft 338 kts 353°
2026-04-30 12:57 39.55100 8.91161 20599 ft 341 kts 353°
2026-04-30 12:57 39.57478 8.91029 21193 ft 343 kts 353°
2026-04-30 12:57 39.59867 8.90897 21829 ft 345 kts 353°
2026-04-30 12:57 39.62267 8.90766 22398 ft 348 kts 353°
2026-04-30 12:58 39.64715 8.90630 22967 ft 351 kts 353°
2026-04-30 12:58 39.67138 8.90497 23495 ft 354 kts 353°
2026-04-30 12:58 39.69603 8.90363 24046 ft 356 kts 353°
2026-04-30 12:58 39.72062 8.90230 24547 ft 358 kts 352°
2026-04-30 12:59 39.74586 8.90093 25084 ft 360 kts 352°
2026-04-30 12:59 39.77089 8.89957 25548 ft 363 kts 352°
2026-04-30 12:59 39.79598 8.89817 26016 ft 365 kts 352°
2026-04-30 12:59 39.82130 8.89675 26465 ft 367 kts 352°
2026-04-30 13:00 39.84716 8.89533 26896 ft 370 kts 352°
2026-04-30 13:00 39.87295 8.89394 27340 ft 373 kts 352°
2026-04-30 13:00 39.89867 8.89254 27733 ft 376 kts 352°
2026-04-30 13:00 39.92507 8.89109 28161 ft 378 kts 352°
2026-04-30 13:01 39.95131 8.88966 28581 ft 379 kts 352°
2026-04-30 13:01 39.97758 8.88821 28960 ft 382 kts 352°
2026-04-30 13:01 40.00408 8.88676 29338 ft 384 kts 352°
2026-04-30 13:01 40.03089 8.88528 29723 ft 386 kts 352°
2026-04-30 13:02 40.05794 8.88381 30126 ft 387 kts 352°
2026-04-30 13:02 40.08488 8.88232 30457 ft 390 kts 352°
2026-04-30 13:02 40.11202 8.88083 30786 ft 393 kts 352°
2026-04-30 13:02 40.13936 8.87932 31202 ft 393 kts 351°
2026-04-30 13:03 40.16656 8.87781 31491 ft 396 kts 351°
2026-04-30 13:03 40.19424 8.87627 31871 ft 397 kts 351°
2026-04-30 13:03 40.22211 8.87474 32217 ft 399 kts 351°
2026-04-30 13:03 40.24965 8.87322 32525 ft 402 kts 351°
2026-04-30 13:04 40.27808 8.87164 32876 ft 403 kts 351°
2026-04-30 13:04 40.30650 8.87007 33185 ft 405 kts 351°
2026-04-30 13:04 40.33493 8.86850 33537 ft 406 kts 351°
2026-04-30 13:04 40.36324 8.86692 33874 ft 407 kts 351°
2026-04-30 13:05 40.39183 8.86532 34151 ft 410 kts 351°
2026-04-30 13:05 40.42032 8.86373 34475 ft 412 kts 351°
2026-04-30 13:05 40.44907 8.86212 34728 ft 413 kts 351°
2026-04-30 13:06 40.50705 8.85888 35257 ft 417 kts 350°
2026-04-30 13:06 40.53601 8.85727 35640 ft 415 kts 350°
2026-04-30 13:06 40.56475 8.85572 36052 ft 412 kts 350°
2026-04-30 13:06 40.59356 8.85415 36463 ft 411 kts 350°
2026-04-30 13:07 40.62173 8.85260 36858 ft 410 kts 350°
2026-04-30 13:07 40.65022 8.85101 37287 ft 409 kts 350°
2026-04-30 13:07 40.67893 8.84941 37710 ft 408 kts 350°
2026-04-30 13:07 40.70720 8.84781 38051 ft 408 kts 350°
2026-04-30 13:08 40.73566 8.84619 38084 ft 410 kts 350°
2026-04-30 13:08 40.79262 8.84299 38089 ft 409 kts 350°
2026-04-30 13:09 40.84931 8.83984 38085 ft 407 kts 350°
2026-04-30 13:09 40.90596 8.83665 38084 ft 407 kts 350°
2026-04-30 13:10 40.96251 8.83343 38080 ft 408 kts 350°
2026-04-30 13:10 41.01935 8.83018 38070 ft 408 kts 350°
2026-04-30 13:11 41.07579 8.82698 38072 ft 408 kts 350°
2026-04-30 13:11 41.13284 8.82372 38073 ft 410 kts 350°
2026-04-30 13:12 41.18966 8.82053 38070 ft 408 kts 350°
2026-04-30 13:12 41.24628 8.81733 38067 ft 407 kts 350°
2026-04-30 13:13 41.33141 8.81244 38072 ft 409 kts 351°
2026-04-30 13:14 41.41753 8.81460 38075 ft 415 kts 355°
2026-04-30 13:14 41.50365 8.82058 38076 ft 413 kts 355°
2026-04-30 13:15 41.59037 8.82565 38090 ft 414 kts 355°
2026-04-30 13:16 41.64750 8.82879 38091 ft 414 kts 355°
2026-04-30 13:16 41.70501 8.83184 38100 ft 413 kts 355°
2026-04-30 13:17 41.79104 8.83644 38109 ft 414 kts 355°
2026-04-30 13:18 41.87743 8.84103 38111 ft 414 kts 355°
2026-04-30 13:18 41.96351 8.84568 38117 ft 413 kts 355°
2026-04-30 13:19 42.02101 8.84875 38123 ft 414 kts 355°
2026-04-30 13:19 42.07858 8.85183 38131 ft 414 kts 355°
2026-04-30 13:20 42.13634 8.85487 38133 ft 415 kts 355°
2026-04-30 13:20 42.19349 8.85794 38135 ft 413 kts 355°
2026-04-30 13:21 42.25104 8.86106 38142 ft 413 kts 355°
2026-04-30 13:22 42.33763 8.86577 38140 ft 414 kts 355°
2026-04-30 13:22 42.42371 8.87045 38140 ft 413 kts 355°
2026-04-30 13:23 42.51019 8.87506 38151 ft 414 kts 356°
2026-04-30 13:24 42.62476 8.88132 38133 ft 414 kts 356°
2026-04-30 13:25 42.73995 8.88760 38117 ft 413 kts 356°
2026-04-30 13:26 42.88346 8.89885 38125 ft 415 kts 359°
2026-04-30 13:28 43.02684 8.91655 38134 ft 416 kts 359°
2026-04-30 13:28 43.11306 8.92676 38135 ft 414 kts 359°
2026-04-30 13:29 43.22780 8.94025 38139 ft 414 kts 359°
2026-04-30 13:31 43.37094 8.95633 38145 ft 413 kts 359°
2026-04-30 13:32 43.51363 8.95953 38155 ft 408 kts 354°
2026-04-30 13:33 43.62700 8.95484 38157 ft 406 kts 347°
2026-04-30 13:33 43.68076 8.93408 38162 ft 400 kts 335°
2026-04-30 13:34 43.70662 8.91938 38162 ft 399 kts 333°
2026-04-30 13:35 43.80783 8.85690 38162 ft 399 kts 333°
2026-04-30 13:36 43.90955 8.79483 38168 ft 401 kts 334°
2026-04-30 13:36 43.98616 8.74823 38180 ft 401 kts 334°
2026-04-30 13:37 44.06317 8.70134 38172 ft 403 kts 334°
2026-04-30 13:38 44.13902 8.65061 38181 ft 402 kts 329°
2026-04-30 13:39 44.23608 8.57398 38189 ft 401 kts 329°
2026-04-30 13:40 44.30954 8.51730 38187 ft 401 kts 330°
2026-04-30 13:40 44.35886 8.47948 38205 ft 402 kts 330°
2026-04-30 13:41 44.40798 8.44181 38205 ft 402 kts 330°
2026-04-30 13:41 44.45703 8.40413 38213 ft 403 kts 330°
2026-04-30 13:42 44.50622 8.36626 38214 ft 403 kts 330°
2026-04-30 13:42 44.58017 8.30920 38226 ft 403 kts 330°
2026-04-30 13:43 44.62913 8.27133 38227 ft 403 kts 330°
2026-04-30 13:43 44.67807 8.23339 38225 ft 404 kts 329°
2026-04-30 13:44 44.72744 8.19503 38233 ft 404 kts 329°
2026-04-30 13:44 44.77675 8.15666 38227 ft 405 kts 330°
2026-04-30 13:45 44.85081 8.09890 38260 ft 406 kts 330°
2026-04-30 13:46 44.90010 8.06037 38267 ft 406 kts 330°
2026-04-30 13:46 44.94965 8.02155 38270 ft 407 kts 330°
2026-04-30 13:47 44.99922 7.98265 38279 ft 406 kts 330°
2026-04-30 13:47 45.04857 7.94385 38289 ft 406 kts 330°
2026-04-30 13:48 45.09819 7.90472 38294 ft 407 kts 330°
2026-04-30 13:48 45.14753 7.86578 38286 ft 407 kts 330°
2026-04-30 13:49 45.19707 7.82659 38281 ft 407 kts 330°
2026-04-30 13:49 45.24631 7.78754 38281 ft 407 kts 330°
2026-04-30 13:50 45.29608 7.74801 38277 ft 408 kts 331°
2026-04-30 13:50 45.37017 7.68900 38280 ft 408 kts 331°
2026-04-30 13:51 45.41996 7.64924 38282 ft 410 kts 331°
2026-04-30 13:51 45.46951 7.60961 38274 ft 411 kts 331°
2026-04-30 13:52 45.51955 7.56950 38276 ft 410 kts 331°
2026-04-30 13:52 45.56928 7.52953 38278 ft 411 kts 331°
2026-04-30 13:53 45.61931 7.48924 38273 ft 411 kts 331°
2026-04-30 13:53 45.66929 7.44894 38265 ft 411 kts 331°
2026-04-30 13:54 45.71930 7.40855 38247 ft 413 kts 331°
2026-04-30 13:54 45.76946 7.36792 38241 ft 414 kts 331°
2026-04-30 13:55 45.81898 7.32536 38265 ft 414 kts 327°
2026-04-30 13:55 45.86630 7.27752 38257 ft 417 kts 324°
2026-04-30 13:56 45.91283 7.22895 38256 ft 417 kts 324°
2026-04-30 13:56 45.95999 7.18012 38254 ft 417 kts 325°
2026-04-30 13:57 46.00722 7.13151 38251 ft 418 kts 325°
2026-04-30 13:57 46.05416 7.08326 38243 ft 419 kts 325°
2026-04-30 13:58 46.12529 7.01014 38243 ft 419 kts 325°
2026-04-30 13:59 46.17296 6.96099 38234 ft 419 kts 325°
2026-04-30 13:59 46.22042 6.91195 38206 ft 419 kts 325°
2026-04-30 14:00 46.26787 6.86283 38205 ft 419 kts 325°
2026-04-30 14:00 46.33854 6.78951 38205 ft 420 kts 326°
2026-04-30 14:01 46.38621 6.73992 38196 ft 420 kts 326°
2026-04-30 14:01 46.43390 6.69111 38178 ft 420 kts 329°
2026-04-30 14:02 46.48483 6.64960 38169 ft 419 kts 334°
2026-04-30 14:02 46.53705 6.61276 38157 ft 420 kts 336°
2026-04-30 14:03 46.58955 6.57639 38147 ft 419 kts 336°
2026-04-30 14:03 46.64247 6.53941 38146 ft 420 kts 335°
2026-04-30 14:04 46.69493 6.50246 38141 ft 421 kts 336°
2026-04-30 14:04 46.74783 6.46501 38140 ft 422 kts 336°
2026-04-30 14:05 46.80055 6.42753 38141 ft 423 kts 336°
2026-04-30 14:05 46.85337 6.38985 38135 ft 423 kts 336°
2026-04-30 14:06 46.93266 6.33319 38134 ft 424 kts 335°
2026-04-30 14:07 47.01256 6.27589 38130 ft 427 kts 335°
2026-04-30 14:08 47.09215 6.21861 38126 ft 426 kts 335°
2026-04-30 14:08 47.17226 6.16089 38116 ft 426 kts 335°
2026-04-30 14:09 47.22583 6.12218 38118 ft 427 kts 335°
2026-04-30 14:10 47.30576 6.06433 38107 ft 427 kts 337°
2026-04-30 14:10 47.36160 6.03575 38106 ft 424 kts 353°
2026-04-30 14:11 47.42027 6.03121 38106 ft 423 kts
2026-04-30 14:11 47.47904 6.03332 38104 ft 423 kts
2026-04-30 14:12 47.53790 6.03581 38111 ft 423 kts
2026-04-30 14:12 47.59674 6.03773 38121 ft 423 kts
2026-04-30 14:13 47.65518 6.03925 38117 ft 421 kts
2026-04-30 14:13 47.71413 6.04121 38115 ft 422 kts
2026-04-30 14:14 47.77211 6.05251 38121 ft 422 kts 13°
2026-04-30 14:14 47.82935 6.07282 38131 ft 420 kts 15°
2026-04-30 14:15 47.88589 6.09478 38139 ft 420 kts 16°
2026-04-30 14:15 47.94210 6.11656 38143 ft 420 kts 15°
2026-04-30 14:16 47.99899 6.13836 38147 ft 420 kts 15°
2026-04-30 14:16 48.05536 6.15982 38150 ft 420 kts 15°
2026-04-30 14:17 48.11200 6.18133 38166 ft 420 kts 15°
2026-04-30 14:17 48.16912 6.20307 38170 ft 419 kts 15°
2026-04-30 14:18 48.22579 6.22468 38177 ft 419 kts 15°
2026-04-30 14:18 48.31047 6.25706 38178 ft 419 kts 15°
2026-04-30 14:19 48.39540 6.28967 38189 ft 419 kts 15°
2026-04-30 14:20 48.45168 6.31130 38191 ft 418 kts 15°
2026-04-30 14:20 48.53601 6.34378 38200 ft 419 kts 15°
2026-04-30 14:21 48.59234 6.36557 38203 ft 418 kts 15°
2026-04-30 14:22 48.67762 6.39296 38214 ft 417 kts
2026-04-30 14:22 48.76482 6.40327 38221 ft 420 kts
2026-04-30 14:23 48.88128 6.41409 38219 ft 419 kts
2026-04-30 14:24 48.96849 6.42275 38227 ft 419 kts
2026-04-30 14:25 49.08492 6.43368 38231 ft 419 kts
2026-04-30 14:26 49.14341 6.42624 38234 ft 423 kts 351°
2026-04-30 14:26 49.17225 6.41642 38232 ft 425 kts 348°
2026-04-30 14:27 49.25775 6.38037 38229 ft 425 kts 346°
2026-04-30 14:27 49.31454 6.35588 38249 ft 426 kts 347°
2026-04-30 14:28 49.40031 6.31992 38246 ft 426 kts 347°
2026-04-30 14:28 49.45749 6.29614 38254 ft 426 kts 346°
2026-04-30 14:29 49.51346 6.26405 38263 ft 431 kts 334°
2026-04-30 14:29 49.55551 6.22182 38274 ft 434 kts 326°
2026-04-30 14:31 49.67533 6.05601 38276 ft 438 kts 316°
2026-04-30 14:31 49.73844 5.95384 38260 ft 439 kts 316°
2026-04-30 14:32 49.80254 5.85171 38254 ft 441 kts 316°
2026-04-30 14:33 49.84519 5.78405 38246 ft 440 kts 316°
2026-04-30 14:33 49.90939 5.68215 38248 ft 442 kts 316°
2026-04-30 14:34 49.95221 5.61398 38242 ft 441 kts 316°
2026-04-30 14:34 49.99516 5.54542 38243 ft 443 kts 316°
2026-04-30 14:35 50.05946 5.44243 38248 ft 443 kts 316°
2026-04-30 14:36 50.10171 5.37447 38252 ft 442 kts 316°
2026-04-30 14:36 50.14474 5.30509 38240 ft 443 kts 315°
2026-04-30 14:37 50.18775 5.23557 38251 ft 444 kts 315°
2026-04-30 14:37 50.23043 5.16641 38251 ft 444 kts 315°
2026-04-30 14:38 50.27334 5.09668 38248 ft 444 kts 315°
2026-04-30 14:38 50.31582 5.02743 38253 ft 443 kts 315°
2026-04-30 14:39 50.35857 4.95758 38261 ft 443 kts 315°
2026-04-30 14:39 50.40123 4.88769 38250 ft 443 kts 315°
2026-04-30 14:40 50.46504 4.78275 38259 ft 444 kts 315°
2026-04-30 14:40 50.50746 4.71276 38258 ft 443 kts 315°
2026-04-30 14:41 50.54994 4.64246 38255 ft 444 kts 315°
2026-04-30 14:41 50.59235 4.57208 38260 ft 444 kts 315°
2026-04-30 14:42 50.63491 4.50123 38265 ft 443 kts 315°
2026-04-30 14:42 50.67739 4.43034 38262 ft 444 kts 315°
2026-04-30 14:43 50.71936 4.36011 38263 ft 444 kts 315°
2026-04-30 14:43 50.76112 4.29002 38262 ft 444 kts 314°
2026-04-30 14:44 50.80357 4.21858 38261 ft 445 kts 314°
2026-04-30 14:44 50.84571 4.14747 38251 ft 444 kts 314°
2026-04-30 14:45 50.88770 4.07639 38261 ft 444 kts 314°
2026-04-30 14:45 50.92986 4.00484 38259 ft 443 kts 314°
2026-04-30 14:46 50.97211 3.93296 38253 ft 444 kts 314°
2026-04-30 14:46 51.00725 3.87302 38259 ft 444 kts 314°
2026-04-30 14:47 51.05616 3.78933 38251 ft 444 kts 314°
2026-04-30 14:47 51.09802 3.71743 38255 ft 444 kts 314°
2026-04-30 14:48 51.14012 3.64494 38249 ft 444 kts 314°
2026-04-30 14:48 51.18203 3.57261 38247 ft 444 kts 314°
2026-04-30 14:49 51.22366 3.50052 38248 ft 445 kts 314°
2026-04-30 14:49 51.26538 3.42807 38242 ft 445 kts 313°
2026-04-30 14:50 51.30708 3.35542 38081 ft 443 kts 313°
2026-04-30 14:50 51.32786 3.31916 37675 ft 437 kts 313°
2026-04-30 14:51 51.36844 3.24817 36634 ft 431 kts 313°
2026-04-30 14:51 51.38852 3.21297 36147 ft 430 kts 313°
2026-04-30 14:51 51.42810 3.14176 35162 ft 429 kts 309°
2026-04-30 14:52 51.44491 3.10281 34614 ft 429 kts 299°
2026-04-30 14:52 51.46600 3.01453 33531 ft 424 kts 285°
2026-04-30 14:52 51.47370 2.96920 33015 ft 421 kts 284°
2026-04-30 14:53 51.48782 2.87881 31975 ft 416 kts 283°
2026-04-30 14:53 51.49466 2.83457 31471 ft 413 kts 283°
2026-04-30 14:54 51.50859 2.74608 30464 ft 407 kts 283°
2026-04-30 14:54 51.52185 2.66327 29512 ft 402 kts 283°
2026-04-30 14:55 51.53570 2.57727 28519 ft 397 kts 284°
2026-04-30 14:55 51.54249 2.53501 28031 ft 394 kts 284°
2026-04-30 14:55 51.55793 2.45073 27044 ft 389 kts 289°
2026-04-30 14:56 51.57657 2.36993 26079 ft 384 kts 290°
2026-04-30 14:56 51.59479 2.29276 25144 ft 379 kts 290°
2026-04-30 14:57 51.60409 2.25289 24674 ft 376 kts 289°
2026-04-30 14:57 51.62230 2.17462 23730 ft 372 kts 292°
2026-04-30 14:58 51.64964 2.10614 22813 ft 366 kts 319°
2026-04-30 14:58 51.66962 2.08134 22355 ft 361 kts 329°
2026-04-30 14:58 51.71227 2.04274 21951 ft 344 kts 334°
2026-04-30 14:59 51.75416 2.00772 21163 ft 340 kts 334°
2026-04-30 15:00 51.81632 1.95528 19889 ft 336 kts 334°
2026-04-30 15:00 51.85743 1.92019 19034 ft 333 kts 334°
2026-04-30 15:01 51.89612 1.87995 18287 ft 332 kts 315°
2026-04-30 15:01 51.90586 1.86082 18258 ft 336 kts 303°
2026-04-30 15:01 51.93284 1.78186 18240 ft 345 kts 297°
2026-04-30 15:02 51.94381 1.74758 18244 ft 344 kts 297°
2026-04-30 15:02 51.95476 1.71363 18084 ft 339 kts 297°
2026-04-30 15:03 51.98776 1.61264 16798 ft 335 kts 297°
2026-04-30 15:03 52.00941 1.54655 15953 ft 332 kts 298°
2026-04-30 15:04 52.03098 1.48054 15113 ft 329 kts 298°
2026-04-30 15:04 52.06269 1.38311 13866 ft 324 kts 298°
2026-04-30 15:05 52.09402 1.28651 12632 ft 320 kts 297°
2026-04-30 15:06 52.11250 1.22267 12244 ft 307 kts 279°
2026-04-30 15:06 52.10892 1.15308 11742 ft 309 kts 253°
2026-04-30 15:07 52.09913 1.08575 11209 ft 306 kts 254°
2026-04-30 15:07 52.09063 1.01775 10710 ft 306 kts 255°
2026-04-30 15:08 52.08275 0.95043 10114 ft 305 kts 255°
2026-04-30 15:08 52.07076 0.84874 8847 ft 302 kts 255°
2026-04-30 15:09 52.05723 0.78662 8247 ft 285 kts 230°
2026-04-30 15:09 52.03286 0.73546 8239 ft 288 kts 226°
2026-04-30 15:10 52.00795 0.68513 8185 ft 284 kts 226°
2026-04-30 15:11 51.95915 0.58558 6607 ft 278 kts 226°
2026-04-30 15:11 51.93562 0.53699 6217 ft 275 kts 226°
2026-04-30 15:12 51.90005 0.46389 6196 ft 274 kts 226°
2026-04-30 15:13 51.87651 0.41547 5463 ft 274 kts 226°
2026-04-30 15:14 51.82974 0.31939 4324 ft 273 kts 226°
2026-04-30 15:14 51.79456 0.24749 3937 ft 261 kts 226°
2026-04-30 15:16 51.74628 0.14556 3157 ft 207 kts 227°
2026-04-30 15:17 51.76491 0.07404 2487 ft 202 kts
2026-04-30 15:18 51.81372 0.12848 2033 ft 160 kts 51°
2026-04-30 15:19 51.83680 0.16281 1437 ft 136 kts 51°